Terug naar catalogus

STARLINK-4065

ActiefCommunicatieVLEO
NORAD 52841·PAYLOAD·🇺🇸 United States

Gelanceerd Jun 17, 2022 vanaf Cape Canaveral Space Force Station

Loading…

Volgende Passages (komende 24 uur)

TLE

VersSource: CelesTrak SupGP

Epoch: Sep 14, 2026, 20:41 UTC

1 52841C 22062M   26257.86229167  .00049893  00000+0  14746-2 0  2578
2 52841  53.1588 253.8323 0001151  71.3089 345.7890 15.34355217    17

Volg STARLINK-4065 in realtime met AllMySat

Download on the App Store